Location: Fort Wayne
(41.1310°N, 85.1290°W)
Time: 20:05:28
(UTC-04:00)

COSMOS 2428 - Visible Passes

Search period start: 27 May 2016 00:00
Search period end: 06 June 2016 00:00
Orbit: 846 x 856 km, 70.9° (Epoch: 27 May)

Date Brightness Start Highest point End Pass type
(mag) Time Alt. Az. Time Alt. Az. Time Alt. Az.
27 May 4.6 04:33:06 10° N 04:38:11 32° ENE 04:43:12 10° ESE visible
28 May 4.6 04:20:54 10° N 04:25:59 32° ENE 04:31:01 10° ESE visible
29 May 4.5 04:08:42 10° N 04:13:47 32° ENE 04:18:49 10° ESE visible
30 May 4.5 03:56:30 10° N 04:01:35 32° ENE 04:06:36 10° ESE visible
31 May 4.4 03:44:17 10° N 03:49:22 32° ENE 03:54:25 10° ESE visible
31 May 3.2 05:28:28 10° NW 05:33:38 37° WSW 05:38:48 10° S visible
01 Jun 4.4 03:32:05 10° N 03:37:10 32° ENE 03:42:12 10° ESE visible
01 Jun 3.2 05:16:15 10° NW 05:21:26 37° WSW 05:26:35 10° S visible
02 Jun 4.4 03:19:53 10° N 03:24:58 32° ENE 03:30:00 10° ESE visible
02 Jun 3.2 05:04:04 10° NW 05:09:14 37° WSW 05:14:24 10° S visible
03 Jun 4.3 03:07:41 10° N 03:12:45 32° ENE 03:17:48 10° ESE visible
03 Jun 3.2 04:51:51 10° NW 04:57:02 37° WSW 05:02:11 10° S visible
04 Jun 4.3 02:55:29 10° N 03:00:33 32° ENE 03:05:36 10° ESE visible
04 Jun 3.2 04:39:39 10° NW 04:44:50 37° WSW 04:49:49 11° S visible
05 Jun 4.3 02:43:17 10° N 02:48:21 32° ENE 02:53:23 10° ESE visible
05 Jun 3.2 04:27:27 10° NW 04:32:37 37° WSW 04:36:20 17° SSW visible
